Bowen Airport AWS Observation History
Time Wind Speed Temp Pressure Rel. Hum Rain
05/10:30pm SSE 13-17 kts 19.4°c 1021.4 hPa 90% 0.0mm
05/10:00pm SSE 12-17 kts 19.3°c 1021.7 hPa 91% 0.0mm
05/09:30pm SSE 12-17 kts 19.4°c 1021.8 hPa 90% 0.0mm
05/09:00pm SE 16-21 kts 19.6°c 1021.7 hPa 89% 0.0mm
05/08:30pm SSE 14-20 kts 19.7°c 1021.7 hPa 89% 0.0mm
05/08:00pm SSE 15-19 kts 19.8°c 1021.7 hPa 88% 0.0mm
05/07:30pm SSE 13-19 kts 19.8°c 1021.5 hPa 89% 0.0mm
05/07:00pm SSE 14-19 kts 20.1°c 1021.1 hPa 87% 0.0mm
05/06:30pm SSE 13-18 kts 20.2°c 1020.8 hPa 86% 0.0mm
05/06:00pm SE 14-19 kts 20.9°c 1020.5 hPa 84% 0.0mm
05/05:30pm SE 18-23 kts 21.4°c 1020.2 hPa 80% 0.0mm
05/05:00pm SE 15-20 kts 21.9°c 1019.7 hPa 77% 0.0mm
05/04:30pm SE 16-21 kts 22.6°c 1019.4 hPa 75% 0.0mm
05/04:00pm SE 17-22 kts 23.2°c 1019.2 hPa 71% 0.0mm
05/03:30pm SE 19-24 kts 23.5°c 1019.1 hPa 71% 0.0mm
05/03:00pm SE 18-22 kts 24.0°c 1018.8 hPa 68% 0.0mm
05/02:30pm SE 17-22 kts 24.4°c 1019.0 hPa 65% 0.0mm
05/02:00pm SE 17-22 kts 24.1°c 1019.3 hPa 69% 0.0mm
05/01:30pm SE 16-20 kts 24.9°c 1019.5 hPa 68% 0.0mm
05/01:00pm SE 17-21 kts 24.6°c 1019.9 hPa 68% 0.0mm
05/12:30pm SE 16-21 kts 24.5°c 1020.3 hPa 68% 0.0mm
05/12:00pm SE 16-21 kts 24.5°c 1020.6 hPa 67% 0.0mm
05/11:30am SE 16-22 kts 24.6°c 1021.0 hPa 70% 0.0mm
05/11:00am SE 15-19 kts 23.8°c 1021.2 hPa 74% 0.0mm
05/10:30am SE 15-20 kts 23.2°c 1021.7 hPa 74% 0.0mm
05/10:00am SE 14-17 kts 21.2°c 1022.1 hPa 84% 0.0mm
05/09:30am SE 16-20 kts 20.5°c 1022.3 hPa 86% 0.0mm
05/09:00am SSE 15-18 kts 21.5°c 1021.9 hPa 81% 0.0mm
05/08:30am SSE 15-21 kts 20.7°c 1021.6 hPa 84% 0.0mm
05/08:00am SE 13-16 kts 20.3°c 1021.2 hPa 88% 0.0mm
05/07:30am SSE 10-15 kts 19.1°c 1020.8 hPa 93% 0.0mm
05/07:00am SSE 12-16 kts 18.9°c 1020.4 hPa 94% 0.0mm
05/06:30am SSE 12-19 kts 18.6°c 1020.0 hPa 94% 0.0mm
05/06:00am SSE 12-15 kts 18.7°c 1019.8 hPa 93% 0.0mm
05/05:30am SSE 12-17 kts 18.7°c 1019.3 hPa 92% 0.0mm
05/05:00am SE 13-19 kts 18.9°c 1019.1 hPa 91% 0.0mm
05/04:30am SSE 14-17 kts 18.8°c 1019.1 hPa 91% 0.0mm
05/04:00am SSE 13-18 kts 19.1°c 1019.1 hPa 90% 0.0mm
05/03:30am SSE 14-21 kts 19.3°c 1019.2 hPa 89% 0.0mm
05/03:00am SSE 14-19 kts 19.2°c 1019.3 hPa 89% 0.0mm
05/02:30am SSE 13-17 kts 19.1°c 1019.5 hPa 90% 0.0mm
05/02:00am SSE 11-15 kts 19.0°c 1019.6 hPa 90% 0.0mm
05/01:30am SSE 12-16 kts 19.2°c 1020.2 hPa 90% 0.0mm
05/01:00am SSE 11-14 kts 19.3°c 1020.5 hPa 90% 0.0mm
05/12:30am SSE 12-16 kts 19.6°c 1020.7 hPa 87% 0.0mm
05/12:00am SSE 12-16 kts 19.8°c 1021.1 hPa 87% 0.0mm
Time Wind Speed Temp Pressure Rel. Hum Rain
04/11:30pm SSE 11-14 kts 19.6°c 1021.3 hPa 87% 0.0mm
04/11:00pm SE 13-17 kts 19.6°c 1021.5 hPa 87% 0.0mm
04/10:30pm SE 13-19 kts 19.9°c 1021.8 hPa 87% 0.0mm
04/10:00pm SE 10-15 kts 19.8°c 1022.1 hPa 87% 0.0mm
04/09:30pm SSE 11-14 kts 19.8°c 1022.3 hPa 86% 0.0mm
04/09:00pm SSE 9-13 kts 20.0°c 1022.4 hPa 85% 0.0mm
04/08:30pm SSE 11-15 kts 20.3°c 1022.2 hPa 83% 0.0mm
04/08:00pm SSE 10-15 kts 20.5°c 1022.0 hPa 83% 0.0mm
04/07:30pm SE 11-15 kts 20.2°c 1021.9 hPa 83% 0.0mm
04/07:00pm SE 12-16 kts 20.5°c 1021.7 hPa 81% 0.0mm
04/06:30pm SSE 11-15 kts 20.3°c 1021.4 hPa 80% 0.0mm
04/06:00pm SSE 12-16 kts 20.5°c 1021.2 hPa 77% 0.0mm
04/05:30pm SE 13-17 kts 21.2°c 1021.0 hPa 72% 0.0mm
04/05:00pm SE 15-20 kts 22.0°c 1020.7 hPa 70% 0.0mm
04/04:30pm SE 17-23 kts 22.6°c 1020.2 hPa 67% 0.0mm
04/04:00pm SE 14-19 kts 23.5°c 1020.2 hPa 60% 0.0mm
04/03:30pm SE 15-21 kts 23.6°c 1020.0 hPa 60% 0.0mm
04/03:00pm SE 16-20 kts 23.7°c 1019.9 hPa 59% 0.0mm
04/02:30pm SE 15-20 kts 24.1°c 1019.9 hPa 59% 0.0mm
04/02:00pm SE 16-22 kts 24.2°c 1020.0 hPa 56% 0.0mm
04/01:30pm SE 15-19 kts 24.0°c 1020.2 hPa 57% 0.0mm
04/01:00pm SE 13-17 kts 24.0°c 1020.6 hPa 55% 0.0mm
04/12:30pm SE 14-18 kts 23.1°c 1021.2 hPa 55% 0.0mm
04/12:00pm SE 14-19 kts 23.4°c 1021.6 hPa 56% 0.0mm
04/11:30am SE 16-19 kts 22.8°c 1021.9 hPa 56% 0.0mm
04/11:00am SE 13-19 kts 22.3°c 1022.2 hPa 53% 0.0mm
04/10:30am SE 15-18 kts 21.4°c 1022.3 hPa 52% 0.0mm
04/10:00am SSE 16-22 kts 20.7°c 1022.5 hPa 51% 0.0mm
04/09:30am SE 15-20 kts 19.8°c 1022.4 hPa 47% 0.0mm
04/09:00am SSE 14-19 kts 18.9°c 1022.3 hPa 45% 0.0mm
04/08:30am SSE 14-18 kts 17.9°c 1022.4 hPa 45% 0.0mm
04/08:00am SSE 11-14 kts 16.5°c 1022.0 hPa 48% 0.0mm
04/07:30am SSE 11-15 kts 15.3°c 1021.6 hPa 51% 0.0mm
04/07:00am SSE 11-14 kts 14.8°c 1021.2 hPa 52% 0.0mm
04/06:30am SSE 10-12 kts 14.2°c 1020.8 hPa 54% 0.0mm
04/06:00am SSE 5-9 kts 13.2°c 1020.5 hPa 65% 0.0mm
04/05:30am SSE 8-12 kts 13.4°c 1020.3 hPa 60% 0.0mm
04/05:00am SSE 9-12 kts 13.3°c 1020.1 hPa 66% 0.0mm
04/04:56am S 8-12 kts 13.5°c 1020.1 hPa 68% 0.0mm
04/04:30am SSW 4-5 kts 8.5°c 1020.3 hPa 90% 0.0mm
04/04:00am SW 7-8 kts 8.4°c 1020.4 hPa 96% 0.0mm
04/03:30am SW 7 kts 8.1°c 1020.5 hPa 97% 0.0mm
04/03:00am SW 7-8 kts 8.9°c 1020.5 hPa 95% 0.0mm
04/02:30am SSW 5-7 kts 9.2°c 1020.5 hPa 95% 0.0mm
04/02:00am SSW 4-5 kts 9.9°c 1020.5 hPa 94% 0.0mm
04/01:30am SSW 6 kts 9.3°c 1020.9 hPa 96% 0.0mm
04/01:00am S 5-6 kts 9.2°c 1021.2 hPa 94% 0.0mm
04/12:30am S 5-6 kts 10.1°c 1021.6 hPa 92% 0.0mm
04/12:00am SSE 3-5 kts 11.5°c 1021.6 hPa 90% 0.0mm
Time Wind Speed Temp Pressure Rel. Hum Rain
03/11:30pm SSE 3 kts 11.2°c 1021.8 hPa 89% 0.0mm
03/11:00pm SSE 6-7 kts 13.4°c 1021.6 hPa 85% 0.0mm
03/10:30pm SSE 6-8 kts 12.8°c 1021.5 hPa 87% 0.0mm
03/10:00pm SE 4-5 kts 12.0°c 1021.6 hPa 83% 0.0mm
03/09:30pm SE 2-3 kts 13.7°c 1021.8 hPa 77% 0.0mm
03/09:00pm SE 2-3 kts 14.4°c 1021.6 hPa 79% 0.0mm
03/08:30pm SE 4-5 kts 14.7°c 1021.2 hPa 75% 0.0mm
03/08:00pm SE 4-5 kts 15.0°c 1021.2 hPa 72% 0.0mm
03/07:30pm SSE 7-9 kts 16.9°c 1020.9 hPa 68% 0.0mm
03/07:00pm SSE 8-10 kts 17.7°c 1020.5 hPa 67% 0.0mm
03/06:30pm SSE 8-11 kts 18.1°c 1020.1 hPa 66% 0.0mm
03/06:00pm SSE 7-9 kts 18.3°c 1019.9 hPa 64% 0.0mm
03/05:30pm SE 8-11 kts 19.8°c 1019.7 hPa 59% 0.0mm
03/05:00pm SE 11-14 kts 21.2°c 1019.4 hPa 52% 0.0mm
03/04:30pm SE 12-15 kts 22.2°c 1019.1 hPa 47% 0.0mm
03/04:00pm SE 11-15 kts 23.0°c 1019.0 hPa 31% 0.0mm
03/03:30pm SE 12-16 kts 23.1°c 1018.9 hPa 32% 0.0mm
03/03:00pm SE 14-17 kts 23.4°c 1019.0 hPa 35% 0.0mm
03/02:30pm SE 14-17 kts 23.8°c 1019.2 hPa 33% 0.0mm
03/02:00pm SE 15-19 kts 23.4°c 1019.4 hPa 29% 0.0mm
03/01:30pm ESE 12-17 kts 23.0°c 1019.5 hPa 34% 0.0mm
03/01:00pm ESE 13-17 kts 22.2°c 1019.9 hPa 38% 0.0mm
03/12:30pm SE 14-18 kts 22.3°c 1020.5 hPa 37% 0.0mm
03/12:00pm SE 15-18 kts 22.8°c 1020.9 hPa 34% 0.0mm
03/11:30am SSE 14-18 kts 21.9°c 1021.2 hPa 35% 0.0mm
03/11:00am SE 14-17 kts 21.5°c 1021.5 hPa 37% 0.0mm
03/10:30am SE 15-18 kts 21.4°c 1021.7 hPa 39% 0.0mm
03/10:00am SE 17-21 kts 20.8°c 1021.7 hPa 35% 0.0mm
03/09:30am SE 16-22 kts 20.3°c 1021.7 hPa 42% 0.0mm
03/09:00am SE 14-20 kts 20.0°c 1021.7 hPa 46% 0.0mm
03/08:30am SE 13-17 kts 19.4°c 1021.5 hPa 54% 0.0mm
03/08:00am SE 14-19 kts 18.7°c 1021.2 hPa 55% 0.0mm
03/07:30am SE 15-20 kts 18.4°c 1020.9 hPa 57% 0.0mm
03/07:00am SE 12-15 kts 18.0°c 1020.4 hPa 56% 0.0mm
03/06:30am SE 12-18 kts 17.7°c 1019.9 hPa 57% 0.0mm
03/06:00am SSE 11-15 kts 17.6°c 1019.6 hPa 56% 0.0mm
03/05:30am SSE 12-16 kts 18.0°c 1019.4 hPa 57% 0.0mm
03/05:00am SSE 8-10 kts 17.8°c 1019.1 hPa 61% 0.0mm
03/04:30am SSE 8-12 kts 17.6°c 1019.0 hPa 59% 0.0mm
03/04:00am SSE 9-12 kts 18.3°c 1019.1 hPa 63% 0.0mm
03/03:30am SSE 9-13 kts 18.4°c 1019.0 hPa 69% 0.0mm
03/03:00am SSE 7-11 kts 18.8°c 1019.1 hPa 68% 0.0mm
03/02:30am SSE 7-11 kts 18.4°c 1019.2 hPa 68% 0.0mm
03/02:00am SE 10-14 kts 19.4°c 1019.3 hPa 68% 0.0mm
03/01:30am SE 6-13 kts 19.2°c 1019.7 hPa 67% 0.0mm
03/01:00am SSE 5-7 kts 19.2°c 1020.0 hPa 67% 0.0mm
03/12:30am SSE 4-8 kts 18.6°c 1019.8 hPa 73% 0.0mm
03/12:00am SSW 4-6 kts 17.9°c 1019.9 hPa 79% 0.0mm